Regional Weather Roundup
Issued by NWS

Home | Current Version | Previous Version | Text Only | Print | Product List | Glossary On
Versions: 1 2 3 4 5 6 7 8 9 10 11 12 13 14 15 16 17 18 19 20 21 22 23 24 25 26 27 28 29 30 31 32 33 34 35 36 37 38 39 40 41 42 43 44 45 46 47 48 49 50
000
ASUS43 KTOP 270808
RWRKS

WEATHER ROUNDUP FOR KANSAS
NATIONAL WEATHER SERVICE GOODLAND KS
200 AM CST TUE JAN 27 2015

NOTE:  "FAIR" INDICATES FEW OR NO CLOUDS BELOW 12,000 FEET WITH NO
SIGNIFICANT WEATHER AND/OR OBSTRUCTIONS TO VISIBILITY.

KSZ001>006-013>018-027>032-041>047-270900-
NORTHWEST KANSAS

CITY           SKY/WX    TMP DP  RH WIND       PRES   REMARKS
GOODLAND       CLEAR     43  30  60 W14       30.12F
HAYS           CLEAR     37  25  60 NW5       30.10R
HILL CITY      CLEAR     39  28  64 W6        30.09S
RUSSELL        CLEAR     36  28  73 W5        30.08S
$$

KSZ061>065-074>080-084>089-270900-
SOUTHWEST KANSAS

CITY           SKY/WX    TMP DP  RH WIND       PRES   REMARKS
DODGE CITY     CLEAR     44  29  55 W10       30.14S
ELKHART          N/A     46  30  53 W12         N/A
GARDEN CITY    CLEAR     38  30  73 W10       30.14S WCI  31
GREAT BEND     CLEAR     34  25  69 CALM      30.11S
LIBERAL        CLEAR     39  28  65 W8        30.18S
PRATT          CLEAR     37  32  81 W8        30.11S
$$

KSZ066>073-081>083-090>101-270900-
SOUTHEAST KANSAS

CITY           SKY/WX    TMP DP  RH WIND       PRES   REMARKS
CHANUTE        CLEAR     38  33  82 N6        30.07R
COFFEYVILLE    CLEAR     37  32  82 NW5       30.07R
HUTCHINSON     CLEAR     40  31  70 NW5       30.09S
MEDICINE LODGE   N/A     38  30  73 NW6       30.09S
NEWTON         CLEAR     43  28  56 NW5       30.10R
PARSONS        CLEAR     34  30  85 N3        30.08R
WICHITA INTL   CLEAR     40  31  70 NW6       30.08R
WICHITA JABRA  CLEAR     45  33  63 NW8       30.08R
WICHITA MCCONL CLEAR     44  33  65 CALM      30.08R
WINFIELD       CLEAR     36  30  79 CALM      30.09R
$$

KSZ007>012-019>026-033>040-048>060-102>105-270900-
NORTHEAST KANSAS

CITY           SKY/WX    TMP DP  RH WIND       PRES   REMARKS
CONCORDIA      CLEAR     35  31  85 CALM      30.07F
EMPORIA        CLEAR     39  30  70 NW5       30.07S
LAWRENCE       CLEAR     29  25  85 NW7       30.08R
MANHATTAN      CLEAR     27  24  89 CALM      30.09R
MARYSVILLE     PTCLDY    32  27  80 SW3       30.09R
OLATHE IND     FAIR      40  30  67 NW7       30.07R
OLATHE EXE     CLEAR     41  31  67 NW6       30.05R
SALINA         CLEAR     36  29  75 CALM      30.09R
TOPEKA BILLARD CLEAR     33  27  78 CALM      30.09R
TOPEKA FORBES  CLEAR     34  27  75 CALM      30.07R
$$



USA.gov is the U.S. government's official web portal to all federal, state and local government web resources and services.